CW4421 Weather Reports


Display with metric or nautical units.
time (UTC)temp
F
wind
direction
speed
MPH
gust
MPH
rain 1hr
in
rain 24hr
in
rain mn
in
humidity
%
barometer
mb
20260509203038 89 224 3.0 14.0 0.00 0.00 0.00 21 1005.4
20260509201534 87 194 2.0 9.0 0.00 0.00 0.00 22 1005.8
20260509200038 88 155 1.0 10.0 0.00 0.00 0.00 20 1005.9
20260509194545 88 219 6.0 18.0 0.00 0.00 0.00 21 1006.0
20260509193036 88 155 4.0 13.0 0.00 0.00 0.00 22 1006.3
20260509191532 88 171 6.0 13.0 0.00 0.00 0.00 21 1006.4
20260509190025 87 180 6.0 12.0 0.00 0.00 0.00 23 1006.5
20260509184523 86 204 6.0 13.0 0.00 0.00 0.00 22 1006.8
20260509183020 85 197 5.0 14.0 0.00 0.00 0.00 24 1007.1
20260509181518 84 200 6.0 12.0 0.00 0.00 0.00 26 1007.2
20260509180015 82 228 10.0 15.0 0.00 0.00 0.00 26 1007.7
20260509174536 79 271 3.0 7.0 0.00 0.00 0.00 28 1008.0
20260509173013 79 259 5.0 10.0 0.00 0.00 0.00 27 1008.2
20260509171513 79 252 4.0 13.0 0.00 0.00 0.00 28 1008.5
20260509170013 79 225 7.0 15.0 0.00 0.00 0.00 30 1008.4
20260509164513 80 263 6.0 14.0 0.00 0.00 0.00 31 1008.6
20260509163013 81 232 8.0 16.0 0.00 0.00 0.00 30 1008.7
20260509161519 82 255 9.0 15.0 0.00 0.00 0.00 31 1008.5
20260509160009 81 285 9.0 18.0 0.00 0.00 0.00 32 1008.3
20260509154505 78 251 9.0 12.0 0.00 0.00 0.00 32 1008.3
20260509153001 75 244 6.0 10.0 0.00 0.00 0.00 40 1008.3
20260509151600 74 256 7.0 12.0 0.00 0.00 0.00 40 1008.6
20260509144555 72 254 7.0 12.0 0.00 0.00 0.00 46 1008.7
20260509143057 71 256 7.0 13.0 0.00 0.00 0.00 48 1008.4
20260509141548 69 236 7.0 14.0 0.00 0.00 0.00 51 1008.2
20260509140057 68 246 6.0 11.0 0.00 0.00 0.00 53 1008.1
20260509134539 66 234 7.0 11.0 0.00 0.00 0.00 55 1008.1
20260509133035 63 255 6.0 12.0 0.00 0.00 0.00 58 1008.4
20260509131532 61 253 4.0 8.0 0.00 0.00 0.00 63 1008.4
20260509130026 59 304 3.0 7.0 0.00 0.00 0.00 66 1008.0
20260509124523 56 269 2.0 5.0 0.00 0.00 0.00 70 1008.3
20260509123020 54 269 2.0 4.0 0.00 0.00 0.00 73 1008.0
20260509121520 53 260 2.0 3.0 0.00 0.00 0.00 74 1007.9
20260509120025 53 263 2.0 5.0 0.00 0.00 0.00 73 1007.7
20260509114518 52 261 2.0 5.0 0.00 0.00 0.00 73 1007.5
20260509113016 52 254 4.0 7.0 0.00 0.00 0.00 74 1007.4
20260509111516 51 257 3.0 5.0 0.00 0.00 0.00 75 1007.5
20260509110015 52 253 3.0 6.0 0.00 0.00 0.00 72 1007.5
20260509104515 50 273 3.0 6.0 0.00 0.00 0.00 75 1007.4
20260509103013 50 254 4.0 5.0 0.00 0.00 0.00 74 1007.5
20260509101513 50 254 4.0 7.0 0.00 0.00 0.00 74 1007.5
20260509100012 50 247 6.0 7.0 0.00 0.00 0.00 72 1007.4
20260509094512 51 251 6.0 9.0 0.00 0.00 0.00 72 1007.6
20260509093011 50 247 5.0 7.0 0.00 0.00 0.00 73 1007.5
20260509091510 50 259 5.0 7.0 0.00 0.00 0.00 72 1007.7
20260509090010 50 248 6.0 7.0 0.00 0.00 0.00 72 1007.7
20260509084507 50 250 2.0 4.0 0.00 0.00 0.00 73 1007.7
20260509083010 50 248 4.0 5.0 0.00 0.00 0.00 71 1007.8
20260509081506 51 250 1.0 6.0 0.00 0.00 0.00 71 1007.7
20260509074610 51 252 4.0 7.0 0.00 0.00 0.00 71 1007.8
20260509073056 52 250 5.0 6.0 0.00 0.00 0.00 67 1007.9
20260509071608 54 237 4.0 5.0 0.00 0.00 0.00 64 1007.8
20260509070056 53 227 1.0 4.0 0.00 0.00 0.00 65 1007.8
20260509064558 52 236 1.0 4.0 0.00 0.00 0.00 67 1007.9
20260509063051 53 245 4.0 5.0 0.00 0.00 0.00 66 1007.8
20260509061555 53 245 4.0 5.0 0.00 0.00 0.00 65 1007.8
20260509060049 54 232 1.0 3.0 0.00 0.00 0.00 64 1007.8
20260509054605 54 234 2.0 5.0 0.00 0.00 0.00 63 1007.8
20260509053051 53 242 1.0 3.0 0.00 0.00 0.00 65 1007.8
20260509051544 54 235 0.0 0.0 0.00 0.00 0.00 62 1007.8
20260509050051 56 235 0.0 2.0 0.00 0.00 0.00 60 1007.8
20260509044540 56 236 1.0 2.0 0.00 0.00 0.00 60 1007.7
20260509043049 56 234 2.0 4.0 0.00 0.00 0.00 60 1007.7
20260509041539 55 240 1.0 2.0 0.00 0.00 0.00 60 1007.7
20260509040038 56 242 1.0 2.0 0.00 0.00 0.00 58 1007.6
20260509034539 57 247 2.0 6.0 0.00 0.00 0.00 57 1007.5
20260509033037 56 246 4.0 6.0 0.00 0.00 0.00 60 1007.2
20260509031546 57 246 0.0 4.0 0.00 0.00 0.00 58 1007.1
20260509030039 58 244 1.0 4.0 0.00 0.00 0.00 55 1007.0
20260509024539 60 247 0.0 2.0 0.00 0.00 0.00 51 1006.8
20260509023037 61 244 1.0 4.0 0.00 0.00 0.00 51 1006.7
20260509021535 63 246 0.0 1.0 0.00 0.00 0.00 47 1006.6
20260509020034 65 245 0.0 2.0 0.00 0.00 0.00 46 1006.5
20260509014533 67 303 0.0 0.0 0.00 0.00 0.00 41 1006.5
20260509013040 69 303 0.0 0.0 0.00 0.00 0.00 39 1006.5
20260509011533 71 303 0.0 1.0 0.00 0.00 0.00 39 1006.4
20260509010032 73 302 0.0 2.0 0.00 0.00 0.00 37 1006.4
20260509004541 75 296 0.0 4.0 0.00 0.00 0.00 36 1006.3
20260509003032 75 315 0.0 6.0 0.00 0.00 0.00 35 1006.3
20260509001531 76 340 0.0 4.0 0.00 0.00 0.00 34 1006.3
20260509000033 76 28 0.0 5.0 0.00 0.00 0.00 34 1006.2
20260508234531 77 38 0.0 7.0 0.00 0.00 0.00 33 1006.2
20260508233029 77 5 2.0 9.0 0.00 0.00 0.00 33 1006.0
20260508231528 77 5 1.0 8.0 0.00 0.00 0.00 33 1006.0
20260508230029 77 343 2.0 7.0 0.00 0.00 0.00 32 1005.9
20260508224527 78 14 1.0 5.0 0.00 0.00 0.00 32 1005.8
20260508223034 78 15 1.0 8.0 0.00 0.00 0.00 33 1005.7
20260508221531 78 49 1.0 6.0 0.00 0.00 0.00 35 1005.6
20260508220034 78 329 1.0 8.0 0.00 0.00 0.00 32 1005.6
20260508214525 78 28 3.0 8.0 0.00 0.00 0.00 33 1005.6
20260508213030 78 82 3.0 10.0 0.00 0.00 0.00 33 1005.7
20260508211526 77 5 4.0 10.0 0.00 0.00 0.00 34 1005.8
20260508210024 75 59 2.0 7.0 0.00 0.00 0.00 34 1005.7
20260508204523 76 342 1.0 9.0 0.00 0.00 0.00 35 1005.8